Lihue, HI

3:41 PM HST on September 23, 2017 (GMT -1000)
Lihue

Weather History for PHLI - June, 2012

Change the Weather History Date:

Monday, June 11, 2012

  Actual Average Record
Temperature  
Mean Temperature 78 °F 78 °F  
Max Temperature 83 °F 83 °F 87 °F (1982)
Min Temperature 73 °F 73 °F 69 °F (1979)
Degree Days  
Heating Degree Days 0 0  
Month to date heating degree days 0 0  
Since 1 June heating degree days 0 0  
Since 1 July heating degree days 0 0  
Cooling Degree Days 13 13  
Month to date cooling degree days 143 139  
Year to date cooling degree days 1549 1378  
Since 1 June cooling degree days 143 139  
Growing Degree Days 28 (Base 50)    
Moisture  
Dew Point 67 °F    
Average Humidity 73    
Maximum Humidity 84    
Minimum Humidity 62    
Precipitation  
Precipitation 0.01 in 0.06 in 0.25 in (1963)
Month to date precipitation 0.16 0.55  
Year to date precipitation 32.93 16.39  
Snow  
Snow 0.00 in - - ()
Month to date snowfall 0.0  
Since 1 June snowfall 0.0  
Since 1 July snowfall 0.0  
Snow Depth 0.00 in    
Sea Level Pressure  
Sea Level Pressure 30.05 in    
Wind  
Wind Speed 12 mph (NE)    
Max Wind Speed 15 mph    
Max Gust Speed 18 mph    
Visibility 10 miles    
Events      
T = Trace of Precipitation, MM = Missing Value Source: NWS Daily Summary

Daily Weather History Graph

Daily Weather History Graph

Search for Another Location

Airport or City:

Trip Planner

Search our weather history database for the weather conditions in past years. The results will help you decide how hot, cold, wet, or windy it might be!

Date:

Astronomy

Jun. 11, 2012 Rise Set
Actual Time 5:53 AM HST 7:21 PM HST
Civil Twilight 5:28 AM HST 7:45 PM HST
Nautical Twilight 4:58 AM HST 8:15 PM HST
Astronomical Twilight 4:27 AM HST 8:46 PM HST
Moon 12:33 AM HST (6/11) 1:02 PM HST (6/11)
Length of Visible Light 14h 17m
Length of Day
13h 27m
Last Quarter, 45% of the Moon is Illuminated
Jun 11
Last Quarter
Jun 19
New
Jun 26
First Quarter
Jul 3
Full
Jul 10
Last Quarter

Hourly Weather History & Observations

Time (HST) Temp. Heat Index Dew Point Humidity Pressure Visibility Wind Dir Wind Speed Gust Speed Precip Events Conditions
12:06 AM 73.4 °F - 66.2 °F 78% 30.05 in 10.0 mi ENE 10.4 mph - N/A   Overcast
12:29 AM 73.4 °F - 68.0 °F 83% 30.05 in 10.0 mi NE 10.4 mph - N/A   Overcast
12:51 AM 73.4 °F - 68.0 °F 83% 30.04 in 10.0 mi ENE 12.7 mph - N/A   Overcast
12:53 AM 73.9 °F - 68.0 °F 82% 30.04 in 10.0 mi ENE 11.5 mph - N/A   Overcast
1:06 AM 73.4 °F - 66.2 °F 78% 30.04 in 10.0 mi NE 11.5 mph - N/A   Overcast
1:42 AM 73.4 °F - 66.2 °F 78% 30.04 in 10.0 mi NE 12.7 mph - N/A   Overcast
1:49 AM 73.4 °F - 66.2 °F 78% 30.03 in 10.0 mi ENE 11.5 mph - N/A   Overcast
1:53 AM 73.9 °F - 66.9 °F 79% 30.02 in 10.0 mi NE 11.5 mph - N/A   Overcast
2:53 AM 73.0 °F - 66.9 °F 81% 30.02 in 10.0 mi NE 12.7 mph - 0.01 in   Scattered Clouds
3:53 AM 73.0 °F - 68.0 °F 84% 30.01 in 10.0 mi NNE 10.4 mph - N/A   Mostly Cloudy
4:10 AM 73.4 °F - 66.2 °F 78% 30.03 in 10.0 mi NE 10.4 mph - N/A   Scattered Clouds
4:53 AM 73.9 °F - 66.9 °F 79% 30.03 in 10.0 mi NE 11.5 mph - N/A   Mostly Cloudy
5:53 AM 73.9 °F - 66.9 °F 79% 30.03 in 10.0 mi ENE 10.4 mph - N/A   Mostly Cloudy
6:53 AM 75.0 °F - 66.9 °F 76% 30.05 in 10.0 mi ENE 12.7 mph - N/A   Overcast
7:53 AM 75.9 °F - 66.9 °F 74% 30.07 in 10.0 mi ENE 13.8 mph - N/A   Mostly Cloudy
8:53 AM 79.0 °F - 68.0 °F 69% 30.09 in 10.0 mi ENE 12.7 mph - N/A   Mostly Cloudy
9:53 AM 79.0 °F - 66.9 °F 66% 30.09 in 10.0 mi NE 10.4 mph - N/A   Mostly Cloudy
10:53 AM 81.0 °F 83.3 °F 66.9 °F 62% 30.09 in 10.0 mi NE 12.7 mph - N/A   Partly Cloudy
11:53 AM 81.0 °F 83.8 °F 68.0 °F 65% 30.09 in 10.0 mi NE 12.7 mph - N/A   Scattered Clouds
12:53 PM 82.0 °F 84.9 °F 68.0 °F 62% 30.07 in 10.0 mi ENE 11.5 mph - N/A   Partly Cloudy
1:53 PM 82.0 °F 84.9 °F 68.0 °F 62% 30.05 in 10.0 mi ENE 12.7 mph - N/A   Clear
2:53 PM 81.0 °F 83.8 °F 68.0 °F 65% 30.04 in 10.0 mi ENE 11.5 mph - N/A   Clear
3:53 PM 80.1 °F 82.3 °F 66.9 °F 64% 30.04 in 10.0 mi NE 10.4 mph - N/A   Clear
4:53 PM 80.1 °F 82.7 °F 68.0 °F 67% 30.03 in 10.0 mi NE 10.4 mph - N/A   Clear
5:53 PM 78.1 °F - 68.0 °F 71% 30.04 in 10.0 mi ENE 11.5 mph - N/A   Partly Cloudy
6:53 PM 75.0 °F - 66.9 °F 76% 30.05 in 10.0 mi NE 10.4 mph - 0.01 in   Partly Cloudy
7:39 PM 75.2 °F - 68.0 °F 78% 30.06 in 10.0 mi NNE 10.4 mph - 0.01 in   Mostly Cloudy
7:53 PM 75.0 °F - 68.0 °F 79% 30.06 in 10.0 mi NE 10.4 mph - 0.01 in   Scattered Clouds
8:53 PM 75.0 °F - 69.1 °F 82% 30.07 in 10.0 mi NE 9.2 mph - N/A   Mostly Cloudy
9:29 PM 73.4 °F - 68.0 °F 83% 30.08 in 10.0 mi ENE 10.4 mph - N/A   Mostly Cloudy
9:44 PM 75.2 °F - 68.0 °F 78% 30.08 in 10.0 mi ENE 11.5 mph - N/A   Scattered Clouds
9:53 PM 75.0 °F - 66.9 °F 76% 30.07 in 10.0 mi ENE 11.5 mph - N/A   Partly Cloudy
10:53 PM 75.0 °F - 68.0 °F 79% 30.07 in 10.0 mi ENE 8.1 mph - N/A   Scattered Clouds
11:53 PM 75.0 °F - 68.0 °F 79% 30.06 in 10.0 mi ENE 9.2 mph - N/A   Mostly Cloudy